This is the latest recevied weather packets stored in our database for station/object N5XL. If no packets are shown the sender has not sent any weather packets the latest 10 day(s).
| Time | Temp. | Humidity | Pressure | Rain* | Wind** | Luminosity | Snow |
|---|---|---|---|---|---|---|---|
| 1777884843 | 23.33° C | 37% | 1010.8 hPa | 0 mm | - | 0 W/m² | - |
| 1777879083 | 24.44° C | 36% | 1011 hPa | 0 mm | - | 0 W/m² | - |
| 1777877643 | 24.44° C | 35% | 1010.8 hPa | 0 mm | - | 0 W/m² | - |
| 1777876025 | 25° C | 35% | 1010.6 hPa | 0 mm | - | 0 W/m² | - |
| 1777875484 | 25° C | 34% | 1010.5 hPa | 0 mm | - | 0 W/m² | - |
| 1777874943 | 25° C | 34% | 1010.7 hPa | 0 mm | - | 0 W/m² | - |
| 1777871885 | 26.11° C | 31% | 1011 hPa | 0 mm | - | 0 W/m² | - |
| 1777866303 | 27.22° C | 23% | 1010.3 hPa | 0 mm | - | 0 W/m² | - |
| 1777864684 | 27.78° C | 23% | 1009.5 hPa | 0 mm | - | 0 W/m² | - |
| 1777859665 | 30° C | 18% | 1008.1 hPa | 0 mm | - | 8 W/m² | - |
| 1777858023 | 31.67° C | 16% | 1007.8 hPa | 0 mm | - | 29 W/m² | - |
| 1777851904 | 35.56° C | 11% | 1007.7 hPa | 0 mm | - | 340 W/m² | - |
| 1777851384 | 35.56° C | 12% | 1007.6 hPa | 0 mm | - | 367 W/m² | - |
| 1777850824 | 35.56° C | 12% | 1007.6 hPa | 0 mm | - | 404 W/m² | - |
| 1777849204 | 36.11° C | 11% | 1007.3 hPa | 0 mm | - | 495 W/m² | - |
| 1777847223 | 36.67° C | 12% | 1007.8 hPa | 0 mm | - | 566 W/m² | - |
| 1777846143 | 36.67° C | 14% | 1008.1 hPa | 0 mm | - | 651 W/m² | - |
| 1777841103 | 35° C | 17% | 1009.5 hPa | 0 mm | - | 822 W/m² | - |
| 1777837503 | 35° C | 19% | 1010.4 hPa | 0 mm | - | 878 W/m² | - |
| 1777835883 | 33.89° C | 20% | 1010.6 hPa | 0 mm | - | 785 W/m² | - |
| 1777835343 | 33.89° C | 20% | 1010.9 hPa | 0 mm | - | 512 W/m² | - |
| 1777834443 | 32.78° C | 21% | 1011.3 hPa | 0 mm | - | 618 W/m² | - |
| 1777833363 | 32.22° C | 20% | 1011.4 hPa | 0 mm | - | 540 W/m² | - |
| 1777822023 | 26.11° C | 34% | 1012.2 hPa | 0 mm | - | 378 W/m² | - |
| 1777818424 | 23.33° C | 36% | 1012.1 hPa | 0 mm | - | 116 W/m² | - |
* Rain latest hour (hover to see other rain measurements)
** Current wind speed in m/s (hover to see current wind gust speed)